This is the latest recevied weather packets stored in our database for station/object eb1ayw-13. If no packets are shown the sender has not sent any weather packets the latest 10 day(s).
| Time | Temp. | Humidity | Pressure | Rain* | Wind** | Luminosity | Snow |
|---|---|---|---|---|---|---|---|
| 1777763458 | 45° C | 15% | 1002.9 hPa | - | - | - | - |
| 1777761658 | 43.33° C | 16% | 1003.5 hPa | - | - | - | - |
| 1777761058 | 43.89° C | 15% | 1003.4 hPa | - | - | - | - |
| 1777760458 | 45° C | 14% | 1003.1 hPa | - | - | - | - |
| 1777759858 | 45.56° C | 14% | 1003 hPa | - | - | - | - |
| 1777759258 | 47.22° C | 13% | 1002.6 hPa | - | - | - | - |
| 1777758058 | 45.56° C | 14% | 1003.1 hPa | - | - | - | - |
| 1777757458 | 44.44° C | 15% | 1003.5 hPa | - | - | - | - |
| 1777756858 | 46.11° C | 14% | 1003.1 hPa | - | - | - | - |
| 1777756258 | 42.78° C | 16% | 1003.8 hPa | - | - | - | - |
| 1777755658 | 46.67° C | 14% | 1002.8 hPa | - | - | - | - |
| 1777755058 | 37.78° C | 19% | 1004.9 hPa | - | - | - | - |
| 1777754458 | 42.78° C | 16% | 1003.4 hPa | - | - | - | - |
| 1777753859 | 37.78° C | 20% | 1004.7 hPa | - | - | - | - |
| 1777753258 | 39.44° C | 19% | 1004.3 hPa | - | - | - | - |
| 1777752658 | 40° C | 18% | 1003.9 hPa | - | - | - | - |
| 1777752058 | 40.56° C | 18% | 1003.8 hPa | - | - | - | - |
| 1777751458 | 39.44° C | 18% | 1003.9 hPa | - | - | - | - |
| 1777750258 | 39.44° C | 18% | 1003.9 hPa | - | - | - | - |
| 1777749658 | 37.22° C | 20% | 1004.5 hPa | - | - | - | - |
| 1777749058 | 33.89° C | 23% | 1005.1 hPa | - | - | - | - |
| 1777748458 | 38.33° C | 18% | 1003.9 hPa | - | - | - | - |
| 1777747858 | 45° C | 13% | 1001.7 hPa | - | - | - | - |
| 1777747258 | 41.11° C | 15% | 1002.7 hPa | - | - | - | - |
| 1777746657 | 41.67° C | 15% | 1002.3 hPa | - | - | - | - |
* Rain since midnight (hover to see other rain measurements)
** Current wind speed in m/s (hover to see current wind gust speed)